Volver al catálogo

THORAD AGENA D DEB

ActivoPO
NORAD 4777·DEBRIS·🇺🇸 United States

Lanzado Apr 8, 1970 desde Vandenberg Space Force Base

Loading…

Próximos Pases (próximas 24 horas)

TLE

ActualizadoSource: Space-Track

Época: Sep 14, 2026, 13:41 UTC

1 04777U 70025DX  26257.57040603  .00000821  00000-0  68309-3 0  9996
2 04777  99.9462  17.5595 0006664 223.4047 199.9236 13.91926575819478

Sigue THORAD AGENA D DEB en tiempo real con AllMySat

Download on the App Store